Total_Precipitation_Accumulation
2.08 2.33 2.69 3.06 3.27 3.46 3.56 3.87 4.09 3.83 3.38 3.01 2.56 2.40 2.34 2.10 1.90 1.83 1.68 1.83 1.81 2.05 2.31 2.02 2.28 1.98 1.96 2.08 2.10 2.31 2.27 2.05 1.99 2.41 2.51 1.97 1.55 1.57 1.49 1.47 1.67 1.66 1.72
1.71 1.80 1.96 2.28 2.42 2.66 2.95 3.28 3.51 3.34 2.80 2.60 2.43 2.33 2.26 2.09 2.04 1.96 1.97 1.78 1.78 2.00 2.03 2.31 2.07 2.07 2.17 2.18 2.26 2.40 2.38 2.11 2.04 2.46 2.85 2.48 2.38 2.07 1.37 1.45 1.57 1.60 1.84
1.43 1.49 1.53 1.62 1.94 2.47 2.66 2.55 2.78 2.95 2.69 2.58 2.50 2.41 2.37 2.17 2.21 2.15 2.07 1.73 1.63 1.68 1.85 1.97 1.96 2.16 1.95 2.26 2.49 2.44 2.52 2.49 2.26 2.30 2.73 2.78 2.68 2.22 1.72 1.38 1.38 1.56 1.92
1.00 1.18 1.21 1.29 1.48 1.76 2.06 2.35 2.61 2.73 2.64 2.50 2.27 2.12 1.95 1.89 1.89 1.90 1.91 1.78 1.71 1.63 1.71 1.81 2.04 2.20 1.96 2.43 2.08 2.21 2.44 2.60 2.38 2.27 2.12 2.22 2.46 2.54 2.33 1.88 1.49 1.48 1.65
0.59 0.79 0.93 1.06 1.13 1.28 1.66 2.15 2.56 2.78 2.61 2.30 2.12 2.15 1.99 1.94 1.87 1.81 2.04 1.91 1.80 1.67 1.57 1.80 2.05 2.15 2.02 2.17 2.23 2.52 2.38 2.33 2.30 2.31 2.34 2.41 2.36 2.16 2.33 2.30 2.04 1.79 1.40
0.44 0.56 0.69 0.89 0.99 1.07 1.32 1.72 2.08 2.31 2.32 2.17 2.08 2.14 2.17 2.15 2.01 1.83 1.84 1.71 1.69 1.64 1.58 1.80 2.07 2.02 2.02 2.18 2.17 2.30 2.29 2.36 2.43 2.25 2.16 2.36 2.32 2.23 2.31 2.10 1.95 1.90 1.40
0.45 0.58 0.67 0.78 0.80 0.83 1.02 1.34 1.56 1.74 1.94 2.04 2.05 2.02 2.14 2.18 1.97 1.76 1.74 1.73 1.57 1.52 1.58 1.73 2.01 1.96 2.01 2.06 2.24 2.27 2.24 2.30 2.33 2.18 2.04 2.02 1.91 2.02 2.18 2.29 2.01 1.80 1.36
0.40 0.56 0.68 0.72 0.71 0.72 0.90 1.08 1.28 1.51 1.76 1.92 2.00 1.98 1.93 1.81 1.76 1.87 1.78 1.75 1.70 1.63 1.58 1.74 1.77 1.79 1.88 1.95 2.38 2.18 2.11 2.21 2.15 1.92 2.17 2.05 1.74 1.86 2.01 2.26 2.51 2.27 1.83
0.55 0.64 0.78 0.82 0.72 0.73 0.87 0.95 1.12 1.32 1.47 1.71 1.89 1.84 1.84 1.72 1.71 1.77 1.71 1.66 1.80 1.76 1.69 1.64 1.68 1.75 1.91 2.10 2.29 2.18 2.22 2.33 2.11 2.00 2.18 2.02 1.80 1.78 1.76 2.07 2.49 2.78 2.49
0.72 0.84 0.81 0.84 0.80 0.80 0.90 0.97 1.09 1.20 1.26 1.41 1.50 1.42 1.64 1.69 1.82 1.79 1.69 1.62 1.61 1.65 1.70 1.75 1.73 1.82 1.93 2.13 2.30 2.29 2.43 2.48 2.30 2.20 2.21 2.07 1.89 1.98 1.82 1.90 2.24 2.53 2.74
0.73 0.86 0.83 0.81 0.76 0.79 0.85 0.88 1.02 1.13 1.17 1.31 1.40 1.48 1.58 1.66 1.72 1.73 1.71 1.69 1.69 1.72 1.73 1.81 1.84 1.86 1.91 2.09 2.25 2.15 2.39 2.49 2.52 2.33 2.26 2.17 2.18 2.18 2.02 2.10 2.24 2.33 2.63
0.57 0.78 0.85 0.89 0.70 0.73 0.79 0.82 0.92 1.04 1.10 1.28 1.45 1.54 1.71 1.75 1.68 1.67 1.84 1.87 1.85 1.84 1.83 1.89 2.00 1.98 2.00 2.12 2.11 1.98 2.08 2.25 2.43 2.64 2.74 2.49 2.44 2.42 2.24 2.26 2.26 2.31 2.52
0.58 0.74 0.84 0.78 0.70 0.71 0.78 0.82 0.90 1.01 1.11 1.25 1.44 1.64 1.71 1.76 1.85 1.98 2.13 2.18 2.11 2.08 2.09 2.15 2.12 2.14 2.18 2.16 2.08 2.10 2.12 2.21 2.29 2.51 2.72 2.72 2.82 2.56 2.54 2.46 2.35 2.30 2.27
0.57 0.58 0.75 0.79 0.73 0.71 0.75 0.80 0.93 1.07 1.24 1.49 1.65 1.78 1.96 2.06 2.10 2.06 2.15 2.17 2.19 2.24 2.25 2.30 2.25 2.21 2.24 2.25 2.24 2.22 2.18 2.25 2.24 2.29 2.38 2.49 2.77 2.75 2.77 2.59 2.58 2.61 2.59
0.57 0.70 0.81 0.95 0.95 0.89 0.83 0.88 1.10 1.31 1.54 1.81 1.89 1.92 1.98 2.09 2.23 2.36 2.38 2.37 2.36 2.32 2.47 2.45 2.37 2.38 2.41 2.22 2.33 2.51 2.48 2.55 2.37 2.28 2.24 2.21 2.43 2.51 2.53 2.29 2.42 2.65 2.68
0.69 0.85 0.97 1.08 1.18 1.22 1.22 1.26 1.42 1.68 1.99 2.28 2.40 2.50 2.55 2.61 2.68 2.71 2.73 2.78 2.74 2.68 2.61 2.50 2.54 2.54 2.32 2.43 2.48 2.40 2.44 2.63 2.63 2.50 2.42 2.28 2.22 2.20 2.23 2.26 2.32 2.44 2.44
0.85 0.96 1.07 1.14 1.27 1.32 1.41 1.58 1.76 2.01 2.25 2.42 2.52 2.64 2.75 2.88 2.98 2.99 2.99 2.87 2.81 2.74 2.62 2.62 2.67 2.60 2.62 2.57 2.34 2.19 2.19 2.26 2.36 2.43 2.41 2.14 1.99 2.18 2.11 2.26 2.29 2.13 2.06
0.98 1.02 1.10 1.21 1.27 1.40 1.57 1.74 1.84 2.01 2.33 2.53 2.62 2.66 2.70 2.80 2.95 3.11 3.05 2.91 2.85 2.80 2.75 2.70 2.57 2.49 2.39 2.39 2.16 2.14 2.03 1.98 1.93 2.04 2.16 2.12 2.03 2.06 2.15 2.10 1.88 1.72 1.71
0.98 1.04 1.16 1.26 1.37 1.43 1.49 1.52 1.62 1.81 2.03 2.25 2.43 2.44 2.56 2.75 2.85 2.89 2.91 2.97 2.94 2.73 2.59 2.46 2.40 2.35 2.39 2.57 2.31 2.18 1.98 1.97 1.84 1.82 1.83 1.87 1.77 1.89 1.96 1.89 1.69 1.56 1.51
0.99 1.10 1.25 1.34 1.35 1.34 1.35 1.44 1.60 1.82 2.03 2.23 2.43 2.59 2.72 2.85 2.89 2.94 3.04 3.05 2.98 2.93 2.90 2.74 2.61 2.52 2.49 2.65 2.37 2.19 1.99 1.99 1.93 1.93 1.93 1.99 1.77 1.68 1.62 1.57 1.58 1.41 1.31
0.98 1.08 1.24 1.39 1.43 1.40 1.53 1.65 1.79 1.96 2.14 2.26 2.35 2.49 2.66 2.86 3.10 3.25 3.17 3.14 3.08 2.97 2.79 2.59 2.46 2.42 2.43 2.40 2.18 2.03 1.81 1.79 1.84 1.72 1.63 1.67 1.69 1.49 1.34 1.32 1.30 1.23 1.28
0.90 1.08 1.21 1.35 1.50 1.61 1.75 1.88 1.91 1.98 2.15 2.33 2.41 2.47 2.64 2.70 2.84 3.08 3.10 3.01 2.98 2.89 2.79 2.72 2.64 2.56 2.41 2.17 1.94 1.79 1.67 1.67 1.65 1.71 1.71 1.76 1.79 1.53 1.38 1.23 1.11 1.14 1.12
1.01 1.12 1.23 1.35 1.44 1.62 1.80 1.95 2.05 2.13 2.22 2.32 2.45 2.60 2.68 2.70 2.81 2.97 3.04 3.00 2.91 2.80 2.67 2.54 2.34 2.32 2.37 2.27 2.01 1.74 1.60 1.58 1.51 1.70 2.00 2.02 1.96 1.74 1.46 1.34 1.33 1.24 1.10
1.22 1.26 1.33 1.39 1.46 1.54 1.71 1.90 2.04 2.09 2.21 2.27 2.33 2.47 2.60 2.71 2.85 2.87 2.75 2.62 2.48 2.41 2.36 2.23 2.11 2.12 2.18 2.07 1.97 1.82 1.72 1.68 1.58 1.65 1.91 2.06 2.08 1.97 1.76 1.66 1.57 1.35 1.25
1.27 1.31 1.38 1.46 1.49 1.54 1.61 1.84 2.04 2.12 2.15 2.24 2.29 2.28 2.30 2.38 2.51 2.58 2.52 2.38 2.23 2.13 2.06 1.94 1.92 1.91 1.90 1.91 1.92 1.76 1.66 1.64 1.69 1.80 1.99 2.14 2.25 2.25 2.18 2.08 1.99 1.86 1.70
1.37 1.38 1.40 1.44 1.48 1.57 1.67 1.76 2.00 2.23 2.29 2.27 2.16 2.08 2.00 2.00 2.01 2.00 2.04 2.15 2.04 2.03 1.89 1.77 1.70 1.65 1.69 1.71 1.67 1.57 1.50 1.54 1.68 1.74 1.85 2.09 2.28 2.36 2.44 2.48 2.37 2.16 1.98